senior indoor 2018

1000 Metres women

Filter Top Lists

Filter Top Lists

Limit: 2:57.00

Rank Mark Competitor DOB Nat Pos Venue Date
1 2:40.11 Aleksandra GULYAYEVA 30 APR 1994 RUS RUS 1 Orenburg (RUS) 20 JAN 2018
2 2:40.12 Anastasiya MAKAROVA 06 MAR 1992 RUS RUS 2 Orenburg (RUS) 20 JAN 2018
3 2:41.16 Claudia SAUNDERS 19 MAY 1994 FRA FRA 1 Fairfax, VA (USA) 25 FEB 2018
4 2:41.45 Elizabeth WHELAN 05 OCT 1993 CAN CAN 1f1 Boston, MA (USA) 09 FEB 2018
5 2:41.81 Laurence CÔTÉ 09 FEB 1991 CAN CAN 2f1 Boston, MA (USA) 09 FEB 2018
6 2:41.98 Rachel POCRATSKY 23 JAN 1997 USA USA 1f1 Lynchburg, VA (USA) 27 JAN 2018
7 2:42.12 Samantha WATSON 10 NOV 1999 USA USA 1 College Station, TX (USA) 09 DEC 2017
8 2:43.03 Vera VASILYEVA 22 JUN 1994 RUS RUS 3 Orenburg (RUS) 20 JAN 2018
9 2:43.47 Dina ALEKSANDROVA 09 AUG 1992 RUS RUS 4 Orenburg (RUS) 20 JAN 2018
9 2:43.47 Alena SHUKHTUEVA 07 DEC 1993 RUS RUS 5 Orenburg (RUS) 20 JAN 2018
11 2:43.73 Julianne LABACH 1996 CAN CAN 1 Winnipeg (CAN) 23 FEB 2018
12 2:44.12 Karissa SCHWEIZER 12 SEP 1996 USA USA 1 Fayetteville, AR (USA) 12 JAN 2018
13 2:44.39 Lucia STAFFORD 17 AUG 1998 CAN CAN 2 Windsor (CAN) 09 MAR 2018
14 2:44.71 Regan YEE 04 JUL 1995 CAN CAN 2 Winnipeg (CAN) 23 FEB 2018
15 2:44.83 Holly MANNING 08 NOV 1996 NZL NZL 3f1 Boston, MA (USA) 09 FEB 2018
16 2:44.85 Sara HARDIE USA USA 1 Hanover, NH (USA) 25 FEB 2018
17 2:44.94 Meghan MANLEY 03 JUN 1993 USA USA 1f1 New York, NY (USA) 11 JAN 2018
18 2:45.14 Magdalena KRAWCZYK 24 OCT 1992 POL POL 1f1 Spala (POL) 04 FEB 2018
19 2:45.18 Shannon HUGARD USA USA 1 Boston, MA (USA) 04 MAR 2018
20 2:45.26 Santa TKHAKUR 23 APR 1993 RUS RUS 1f2 Moskva (RUS) 09 JAN 2018
21 2:45.45 Sarah EDWARDS 07 JUL 1998 USA USA 2f1 Lynchburg, VA (USA) 27 JAN 2018
22 2:45.51 Alisa SIBLANI 28 AUG 1996 RUS RUS 2f2 Moskva (RUS) 09 JAN 2018
23 2:45.52 Karolina GIZA 04 APR 1989 POL POL 2f1 Spala (POL) 04 FEB 2018
24 2:45.54 Kathryn GILLESPIE 27 SEP 1996 GBR GBR 2 Boston, MA (USA) 04 MAR 2018
25 2:45.68 Yelena MURASHOVA 14 DEC 1987 RUS RUS f2 Moskva (RUS) 09 JAN 2018
26 2:45.75 Anzhelika SHEVCHENKO 29 OCT 1987 UKR UKR 1 St. Petersburg (RUS) 24 DEC 2017
27 2:45.81 Jazmine FRAY 06 JUN 1997 JAM JAM 2 College Station, TX (USA) 09 DEC 2017
28 2:45.83 Lily FLYNN 20 FEB 2001 USA USA 1f3 Staten Island, NY (USA) 03 MAR 2018
29 2:45.88 Beata TOPKA 20 JAN 1999 POL POL 1 Toruń (POL) 06 JAN 2018
30 2:45.92 Zoe MATHERNE 1995 USA USA 3 Boston, MA (USA) 04 MAR 2018
31 2:45.96 Līga VELVERE 10 FEB 1990 LAT LAT 1 Kuldiga (LAT) 20 JAN 2018
32 2:46.04 Jasmine STAEBLER 11 JAN 1997 USA USA 1 Iowa City, IA (USA) 19 JAN 2018
33 2:46.19 Annie TAYLOR USA USA 4 Boston, MA (USA) 04 MAR 2018
34 2:46.23 Kelsey MARGEY 07 MAY 1994 USA USA 1 Staten Island, NY (USA) 03 FEB 2018
35 2:46.24 Yelena ARZHAKOVA 08 SEP 1989 RUS RUS 2 Yekaterinburg (RUS) 07 JAN 2018
36 2:46.38 Charlene LIPSEY 16 JUL 1991 USA USA 1 Haverford, PA (USA) 02 DEC 2017
37 2:46.59 Madeleine KELLY 1995 CAN CAN 3 Windsor (CAN) 09 MAR 2018
38 2:46.61 Courtney HUFSMITH 1998 CAN CAN 2f3 Saskatoon (CAN) 12 JAN 2018
39 2:46.68 Tatsiana SHABANAVA 20 MAR 1998 BLR BLR 2 Kuldiga (LAT) 20 JAN 2018
40 2:46.69 Leya SALIS 07 SEP 1999 USA USA 4f1 Boston, MA (USA) 09 FEB 2018
41 2:46.76 Brianna STRATZ USA USA 5 Boston, MA (USA) 04 MAR 2018
42 2:46.77 Angel PICCIRILLO 08 JAN 1994 USA USA 2 Haverford, PA (USA) 02 DEC 2017
43 2:46.91 Katherine LEE 09 FEB 2000 USA USA 2f3 Staten Island, NY (USA) 03 MAR 2018
44 2:47.05 Megan MALASARTE 01 AUG 1992 USA USA 1 Clemson, SC (USA) 06 JAN 2018
45 2:47.09 Jessy LACOURSE 05 FEB 1997 CAN CAN 1f1 Montreal (CAN) 26 JAN 2018
45 2:47.09 Catherine GAGNÉ 1989 CAN CAN 6f1 Boston, MA (USA) 09 FEB 2018
47 2:47.20 Clare PEABODY USA USA 1f3 Boston, MA (USA) 09 FEB 2018
48 2:47.22 Gabrielle WILKINSON 10 JUN 1999 USA USA 1 New York, NY (USA) 26 JAN 2018
49 2:47.23 Natoya GOULE 30 MAR 1991 JAM JAM 1 Clemson, SC (USA) 09 DEC 2017
50 2:47.24 Carina VILJOEN 15 APR 1997 RSA RSA 2 Fayetteville, AR (USA) 12 JAN 2018
51 2:47.34 Yekaterina SOKOLENKO 13 SEP 1992 ANA ANA f2 Moskva (RUS) 09 JAN 2018
52 2:47.41 Yekaterina STOROZHEVA 22 JAN 1993 RUS RUS 2 St. Petersburg (RUS) 24 DEC 2017
53 2:47.44 Dana EARHART 1998 CAN CAN 3f2 Windsor (CAN) 23 FEB 2018
54 2:47.65 Charlotte WARD 1996 CAN CAN 4f2 Windsor (CAN) 23 FEB 2018
55 2:47.82 Rhianwedd PRICE-WEIMER 11 AUG 1994 GBR GBR 1f1 Birmingham, AL (USA) 12 JAN 2018
56 2:47.92 Emma GALBRAITH 1994 CAN CAN 7f1 Boston, MA (USA) 09 FEB 2018
57 2:47.93 Katie KENNEDY 19 SEP 1996 USA USA 3f1 Lynchburg, VA (USA) 27 JAN 2018
58 2:47.94 Kieran GALLAGHER 09 MAY 1995 USA USA 1f1 Boston, MA (USA) 26 JAN 2018
59 2:47.96 Brigitte MANIA 17 AUG 1991 USA USA 2 Clemson, SC (USA) 06 JAN 2018
60 2:48.00 Laurie BARTON 13 FEB 1998 USA USA 4f1 Lynchburg, VA (USA) 27 JAN 2018
61 2:48.04 Danielle GAJEWSKI USA USA 6 Boston, MA (USA) 04 MAR 2018
62 2:48.11 Anna SHIELDS USA USA 1 Youngstown, OH (USA) 01 DEC 2017
63 2:48.14 Svetlana ULOGA 23 NOV 1986 RUS RUS 4 Yekaterinburg (RUS) 07 JAN 2018
64 2:48.19 Anzhelika MANYAKOVA 28 AUG 1993 RUS RUS 6 Orenburg (RUS) 20 JAN 2018
65 2:48.22 Caitlin ABELSETH USA USA 2f1 Boston, MA (USA) 26 JAN 2018
66 2:48.34 Paige DUCA 05 AUG 1997 USA USA 3f1 Boston, MA (USA) 26 JAN 2018
67 2:48.37 McKenna KEEGAN USA USA 3 Haverford, PA (USA) 02 DEC 2017
67 2:48.37 Annika SISSON USA USA 2h2 Boston, MA (USA) 03 MAR 2018
69 2:48.43 Avery GARRETT-PATTERSON 1997 CAN CAN 5 Windsor (CAN) 09 MAR 2018
70 2:48.47 Kaley CILUFFO 11 SEP 1996 USA USA 1f1 University Park, PA (USA) 13 JAN 2018
71 2:48.5h Yekaterina SOKOLOVA 16 DEC 1995 RUS RUS 1 Bryansk (RUS) 23 DEC 2017
72 2:48.51 Ariane BALLNER 27 NOV 1996 GER GER 1f1 Lubbock, TX (USA) 13 JAN 2018
73 2:48.56 Bridget ONEILL 02 SEP 1996 CAN CAN 4f1 Boston, MA (USA) 26 JAN 2018
74 2:48.57 Piper DONAGHU 26 MAR 1996 USA USA 2f1 University Park, PA (USA) 13 JAN 2018
75 2:48.72 Olesya MURATOVA 25 OCT 1992 RUS RUS 1 Moskva (RUS) 20 DEC 2017
76 2:48.75 Anna KNYAZEVA 20 MAR 1989 RUS RUS 5 Yekaterinburg (RUS) 07 JAN 2018
77 2:48.76 Anastasiya VOLODKINA 15 JUL 1988 RUS RUS 3f2 Moskva (RUS) 09 JAN 2018
78 2:48.82 Gillian CEYHAN 1996 CAN CAN 6f2 Windsor (CAN) 23 FEB 2018
79 2:48.85 Anna JUREW USA USA 2h1 Hanover, NH (USA) 24 FEB 2018
80 2:48.98 Katherine DEVORE USA USA 1f2 Boston, MA (USA) 09 FEB 2018
81 2:49.06 Alison ANDREWS-PAUL 18 DEC 1997 NZL NZL 2f1 Lubbock, TX (USA) 13 JAN 2018
82 2:49.07 Gaia SABBATINI 10 JUN 1999 ITA ITA 1 Ancona (ITA) 14 JAN 2018
83 2:49.13 Lauren TRUMBLE USA USA 2f2 Boston, MA (USA) 09 FEB 2018
84 2:49.16 Elizabeth MCGROARTY 01 NOV 1995 USA USA 1 Princeton (USA) 17 FEB 2018
85 2:49.17 Larkin CHAPMAN 1998 USA USA 1 Iowa City, IA (USA) 12 JAN 2018
86 2:49.38 Jade BOUCHARD-NGUYEN 1996 CAN CAN 1f4 Boston, MA (USA) 09 FEB 2018
87 2:49.41 Klaudia KAZIMIERSKA 03 SEP 2001 POL POL 1 Łódź (POL) 14 JAN 2018
87 2:49.41 Amber STRATZ USA USA 7 Boston, MA (USA) 04 MAR 2018
89 2:49.43 Nicole MERRILL USA USA 2 New York, NY (USA) 26 JAN 2018
90 2:49.56 Weronika LIZAKOWSKA 02 NOV 1998 POL POL 1 Toruń (POL) 27 JAN 2018
91 2:49.68 Rachel WEBER 07 FEB 1995 USA USA 1 Columbus (USA) 05 JAN 2018
92 2:49.75 Kate CURRENT 1998 CAN CAN 7 Windsor (CAN) 09 MAR 2018
93 2:49.80 Kelly JAWORK USA USA 4h1 Hanover, NH (USA) 24 FEB 2018
94 2:49.85 Erinn STENMAN-FAHEY 11 SEP 1997 CAN CAN 2 Iowa City, IA (USA) 19 JAN 2018
95 2:49.9h Galina BUBNOVA 10 DEC 1993 RUS RUS 2 Bryansk (RUS) 23 DEC 2017
96 2:49.90 Bridget FLYNN USA USA 4 Hanover, NH (USA) 25 FEB 2018
97 2:49.95 Delaney MCDOWELL USA USA 5f1 Lynchburg, VA (USA) 27 JAN 2018
98 2:50.01 Ersula FARROW 20 NOV 1997 USA USA 3f1 Lubbock, TX (USA) 13 JAN 2018
99 2:50.05 Maureen LEWIN USA USA 3f3 Staten Island, NY (USA) 03 MAR 2018
100 2:50.07 Kelsey HARRIS USA USA 1 Bloomington, IN (USA) 08 DEC 2017